Preview of NWS' New Version of Forecast
This preview is not operational and should not be used for support decisions.

Regional Weather Roundup (RWR)

Issued by National Weather Service (NWS)

                            
000
ASCA42 TJSJ 200610
RWRPR 
PUERTO RICO/U.S. VIRGIN ISLANDS HOURLY WEATHER ROUNDUP
NATIONAL WEATHER SERVICE SAN JUAN PR
200 AM AST WED FEB 20 2019

PRZ001>002-007>008-010-200700-
PUERTO RICO
  
CITY           SKY/WX    TMP DP  RH WIND       PRES   REMARKS
SAN JUAN LMM   PTCLDY    75  66  73 E12       30.11F                  
CEIBA          PTCLDY    73  66  78 NE9       30.11F                  
$$

VIZ001>002-200700-
U.S. VIRGIN ISLANDS
  
CITY           SKY/WX    TMP DP  RH WIND       PRES   REMARKS
CHARLOTTE AMA  CLOUDY    73  70  88 NE9       30.09F                  
CHRISTIANSTED  MOCLDY    79  70  73 NE9       30.08F                  
$$

HOURLY WEATHER ROUNDUP FOR THE NEWS MEDIA
  
CITY           SKY/WX    TMP DP  RH WIND       PRES   REMARKS
ORLANDO        FAIR      71  68  90 SE9       30.15F                  
NEW YORK       CLOUDY    29   6  38 N8        30.61R WCI  21          
NEWARK         CLOUDY    28   7  41 NW8       30.60S WCI  20          
CHICAGO        CLOUDY    29  21  72 E8        30.30F WCI  21          
HARTFORD       FAIR      21   7  54 NW6       30.56R WCI  13          
BOSTON         FAIR      23   4  44 W9        30.57R WCI  13          
DALLAS         CLOUDY    39  37  92 N8        29.94F WCI  33          
PHILADELPHIA   CLOUDY    32   9  38 NE3       30.61S                  
LOS ANGELES    PTCLDY    51  32  48 VRB5      30.13S                  
WASHINGTON DC  CLOUDY    33  18  53 CALM      30.58S